Flag for China Weather past 2 weeks in Tianjin, Tianjin Municipality, China

Now
34 °F

Haze.


Feels Like: 31 °F
Forecast: 30 / 50 °F
Wind: 3 mph from West

Location: Tianjin / Zhangguizhu

Current Time: Feb 28, 2015 at 8:38:33 PM

Latest Report: Feb 28, 2015 at 8:00 PM


Visibility: 1 mi

Pressure: 30.24 "Hg

Humidity: 75%

Dew point: 27 °F

Location of TianjinLocation

Historic Weather in Tianjin — Graph

°F

Tianjin temperature yesterday

Maximum temperature yesterday: 36 °F (at 9:00 AM)
Minimum temperature yesterday: 28 °F (at 12:30 AM)
Average temperature yesterday: 32 °F

Past Weeks' High & Low Weather Summary

 TemperatureHumidityPressure
High57 °F (Feb 14, 2:30 PM)100% (Feb 16, 5:30 AM)30.57 "Hg (Feb 16, 5:30 AM)
Low23 °F (Feb 19, 7:00 AM)13% (Feb 25, 2:30 PM)29.83 "Hg (Feb 14, 2:00 PM)
Average36 °F58%30.19 "Hg
* Reported Feb 13 7:00 PM — Feb 28 7:30 PM, Tianjin, Weather by CustomWeather, © 2015

Note: Actual official high and low records may vary slightly from our data, if they occured in-between our weather recording intervals... More about our weather records

Advertising

Tianjin weather history for previous 24 hours

 ConditionsComfort  
Time TempWeatherWind HumidityBarometerVisibility
7:30 PM
Sat, Feb 28
34 °FHaze.1 mph75%30.24 "Hg2 mi
7:00 PM34 °FHaze.3 mph75%30.24 "Hg2 mi
6:30 PM36 °FHaze.3 mph70%30.24 "Hg2 mi
6:00 PM36 °FHaze.3 mph70%30.21 "Hg2 mi
5:30 PM37 °FHaze.6 mph65%30.21 "Hg3 mi
5:00 PM37 °FHaze.6 mph65%30.21 "Hg3 mi
4:30 PM37 °FHaze.6 mph65%30.21 "Hg3 mi
4:00 PM37 °FScattered clouds.6 mph65%30.21 "Hg3 mi
3:30 PM36 °FPartly sunny.10 mph70%30.24 "Hg3 mi
3:00 PM36 °FLight snow. Scattered clouds.6 mph70%30.24 "Hg4 mi
2:30 PM36 °FLight snow. Scattered clouds.8 mph70%30.24 "Hg4 mi
2:00 PM36 °FScattered clouds.8 mph75%30.24 "Hg4 mi
1:30 PM34 °FFog.8 mph81%30.27 "Hg3 mi
1:00 PM34 °FLight snow. Fog.6 mph87%30.27 "Hg2 mi
12:30 PM32 °FLight snow. Ice fog.8 mph93%30.30 "Hg1 mi
12:00 PM32 °FLight snow. Ice fog.6 mph93%30.33 "Hg2 mi
11:30 AM32 °FLight snow. Ice fog.6 mph93%30.33 "Hg1 mi
11:00 AM32 °FLight snow. Ice fog.8 mph93%30.36 "Hg1 mi
10:30 AM30 °FLight snow. Ice fog.8 mph100%30.36 "Hg2 mi
10:00 AM30 °FLight snow. Ice fog.6 mph93%30.36 "Hg1 mi
9:30 AM30 °FLight snow. Ice fog.8 mph93%30.39 "Hg1 mi
9:00 AM30 °FLight snow. Ice fog.6 mph93%30.39 "Hg1 mi
8:30 AM28 °FLight snow. Ice fog.8 mph100%30.39 "Hg1 mi
8:00 AM28 °FLight snow. Ice fog.8 mph93%30.39 "Hg2 mi
7:30 AM28 °FLight snow. Ice fog.8 mph93%30.39 "Hg2 mi
7:00 AM28 °FLight snow. Ice fog.8 mph93%30.36 "Hg3 mi
6:30 AM28 °FLight snow. Ice fog.8 mph93%30.36 "Hg3 mi
6:00 AM28 °FLight snow. Ice fog.6 mph93%30.39 "Hg3 mi
5:30 AM28 °FLight snow. Overcast.6 mph93%30.39 "Hg4 mi
5:00 AM28 °FLight snow. Overcast.6 mph93%30.39 "Hg4 mi
4:30 AM28 °FLight snow. Overcast.8 mph93%30.39 "Hg4 mi
4:00 AM28 °FLight snow. Overcast.6 mph93%30.42 "Hg4 mi
3:30 AM28 °FLight snow. Overcast.3 mph93%30.42 "Hg4 mi
3:00 AM28 °FLight snow. Ice fog.3 mph100%30.42 "Hg3 mi
2:30 AM28 °FLight snow. Ice fog.3 mph100%30.45 "Hg2 mi
2:00 AM28 °FLight snow. Ice fog.6 mph100%30.48 "Hg2 mi
1:30 AM28 °FLight snow. Ice fog.3 mph100%30.48 "Hg2 mi
1:00 AM28 °FLight snow. Ice fog.3 mph93%30.48 "Hg2 mi
12:30 AM30 °FLight snow. Ice fog.6 mph86%30.48 "Hg2 mi
12:00 AM30 °FLight snow. Overcast.6 mph75%30.48 "HgN/A
11:30 PM
Fri, Feb 27
30 °FLight snow. Overcast.6 mph69%30.51 "Hg4 mi
11:00 PM32 °FOvercast.6 mph55%30.51 "HgN/A
10:30 PM32 °FClear.6 mph55%30.51 "Hg10 mi
10:00 PM32 °FClear.6 mph60%30.51 "Hg10 mi
9:30 PM32 °FClear.6 mph55%30.51 "Hg10 mi
9:00 PM32 °FClear.6 mph55%30.51 "Hg10 mi
8:30 PM32 °FClear.6 mph55%30.51 "Hg10 mi
8:00 PM30 °FClear.6 mph59%30.51 "Hg10 mi
Weather by CustomWeather, © 2015

See weather overviewHow to use our weather pages